Preview of NWS' New Version of Forecast
This preview is not operational and should not be used for support decisions.
Latest weather observations around

Norwood, Norwood Memorial Airport (KOWD)

Using International System of Units (Switch to English Units)
Date/ Time (EDT) Wind (kph) Vis. (km) Weather Sky Cond. Temp (°C) Rel. Humidity Wind Chill (°C) Heat Index (°C) Pressure Precip. (cm)
Air Dwpt 6 hour Altimeter (hPa) Sea level (hPa) 1 hr 3 hr 6 hr
Max Min
Apr 18 13:53 S 26 16.09 Cloudy OVC048 12 2     52%     1022.4 1022.2     0
Apr 18 12:53 SSE 18 16.09 Cloudy OVC050 12 1     46%     1022.7 1022.7      
Apr 18 11:53 S 17 16.09 Cloudy OVC055 10 0     50%     1023.7 1023.7 0    
Apr 18 10:53 SSE 18 16.09 Cloudy OVC060 10 -2     44%     1023.4 1023.4      
Apr 18 09:53 SSE 9 16.09 Cloudy OVC065 9 1     56% 7   1024.4 1024.2      
Apr 18 08:53 SSE 8 16.09 Cloudy OVC070 8 2     65% 7   1024.7 1024.5      
Apr 18 07:53 Calm 16.09 Cloudy OVC075 8 4     76%     1025.1 1025.1 0   0
Apr 18 06:53 S 5 16.09 Cloudy OVC095 6 3     79% 5   1025.4 1025.2      
Apr 18 05:53 Calm 16.09 Mostly Cloudy BKN110 3 0     82%     1025.1 1025      
Apr 18 04:53 Calm 16.09 Clear CLR 3 0     79%     1024.7 1024.5      
Apr 18 03:53 Calm 16.09 Clear CLR 3 0     82%     1024.1 1024.1      
Apr 18 02:53 SSE 5 16.09 Clear CLR 5 1     76% 4   1024.4 1024.3      
Apr 18 01:53 S 8 16.09 Clear CLR 5 1     76% 3   1024.7 1024.6      
Apr 18 00:53 S 5 16.09 Clear CLR 6 0     65% 5   1024.7 1024.7      
Apr 17 23:53 S 8 16.09 Clear CLR 8 -1     53% 7   1024.7 1024.5      
Apr 17 22:53 S 9 16.09 Clear CLR 9 -2     47% 7   1024.4 1024.2      
Apr 17 21:53 S 13 16.09 Clear CLR 9 -3     44% 7   1023.7 1023.7      
Apr 17 20:53 S 11 16.09 Clear CLR 10 -3     41%     1023.4 1023.2      
Apr 17 19:53 SSE 11 16.09 Clear CLR 12 -3     35%     1022.4 1022.2      
Apr 17 18:53 SSE 18 16.09 Clear CLR 14 -2     33%     1021.7 1021.5      
Apr 17 17:53 E 22 16.09 Clear CLR 17 -3     26%     1020.3 1020.3      
Apr 17 16:53 5 16.09 Clear CLR 18 -6     18%     1020 1019.9      
Apr 17 15:53 8 16.09 Clear CLR 18 -6     19%     1020 1019.9      
Apr 17 14:53 Calm 16.09 Clear CLR 18 -6     19%     1020.3 1020.3      
Apr 17 13:53 Calm 11.27 Clear   17 -6     21%     1020.7 1020.4      
Apr 17 12:53 11 16.09 Clear CLR 16 -5     23%     1020.3 1020.3      
Apr 17 11:53 NNE 13 16.09 Clear   15 -6     24%     1021 1020.8      
Apr 17 10:53 N 15 16.09 Clear CLR 14 -5     27%     1020.7 1020.7      
Apr 17 09:53 NW 13 16.09 Clear CLR 13 -3     32%     1021 1020.9      
Apr 17 08:53 NW 15 16.09 Clear CLR 12 -2     38%     1020.7 1020.7      
Apr 17 07:53 NW 13 16.09 Clear CLR 9 -2     44% 7   1020.3 1020.3      
Apr 17 06:53 Calm 16.09 Clear CLR 3 -1     76%     1020 1019.7      
Apr 17 05:53 Calm 16.09 Clear CLR 1 -2     82%     1019 1018.9      
Apr 17 04:53 Calm 16.09 Clear CLR 2 -2     75%     1018.3 1018.3      
Apr 17 03:53 Calm 16.09 Clear   3 -2     70%     1018 1017.9      
Apr 17 02:53 Calm 16.09 Clear CLR 5 -2     60%     1017.6 1017.6      
Apr 17 01:53 WNW 9 16.09 Mostly Cloudy SCT075 BKN110 8 -3     47% 6   1017.6 1017.6      
Apr 17 00:53 WNW 8 16.09 Partly Cloudy SCT110 8 -3     47% 7   1017.6 1017.5      
Apr 16 23:53 N 8 16.09 Clear CLR 9 -3     42% 8   1016.9 1016.9      
Apr 16 22:53 N 11 16.09 Clear CLR 9 -3     41% 8   1015.9 1015.9      
Apr 16 21:53 N 13 16.09 Clear CLR 11 -4     33%     1014.9 1014.8      
Apr 16 20:53 WNW 5 16.09 Clear CLR 12 -7     26%     1013.6 1013.6      
Apr 16 19:53 WNW 11 16.09 Clear CLR 13 -7     23%     1012.2 1012.1      
Apr 16 18:53 WNW 22 16.09 Clear CLR 15 -7     21%     1011.2 1011.1      
Apr 16 17:53 WNW 28 16.09 Clear CLR 16 -6     22%     1010.8 1010.6      
Apr 16 16:53 WNW 22 16.09 Clear CLR 16 -6     22%     1010.2 1010.2      
Apr 16 15:53 NW 30 16.09 Clear CLR 16 -5     24%     1009.8 1009.8      
Apr 16 14:53 WNW 24 16.09 Clear CLR 15 -4     27%     1010.2 1010.1      
Apr 16 13:53 W 24 16.09 Clear CLR 15 -4     27%     1010.5 1010.5      
Apr 16 12:53 WNW 21 16.09 Clear CLR 13 -3     31%     1010.5 1010.4      
Apr 16 11:53 WNW 22 16.09 Mostly Clear FEW060 13 -3     32%     1010.5 1010.6      
Apr 16 10:53 WNW 26 16.09 Mostly Clear FEW060 12 -4     33%     1010.8 1010.7      
Apr 16 09:53 WNW 28 16.09 Clear CLR 10 -4     37%     1010.5 1010.3      
Apr 16 08:53 WNW 30 16.09 Clear CLR 9 -4     40% 5   1009.8 1009.7      
Apr 16 07:53 WNW 24 16.09 Mostly Clear FEW049 7 -4     44% 3   1009.5 1009.5      
Apr 16 06:53 WNW 22 16.09 Clear CLR 7 -5     43% 3   1008.5 1008.5      
Apr 16 05:53 W 22 16.09 Mostly Cloudy BKN049 7 -4     47% 3   1007.1 1007      
Apr 16 04:53 W 28 16.09 Clear CLR 7 -3     49% 2   1005.8 1005.7      
Apr 16 03:53 W 21 16.09 Mostly Clear FEW048 7 -2     53% 3   1005.1 1005.1      
Apr 16 02:53 W 24 16.09 Clear CLR 7 -3     49% 3   1004.4 1004.4      
Apr 16 01:53 W 37 16.09 Clear and Windy CLR 7 -3     49% 2   1003.1 1002.9     0
Apr 16 00:53 WNW 21 16.09 Clear CLR 7 -2     51% 4   1002.4 1002.2      
Apr 15 23:53 W 17 16.09 Mostly Cloudy BKN050 8 -2     51% 5   1001.7 1001.5      
Apr 15 22:53   16.09 Cloudy BKN048 OVC055 8 0     56%     1000.7 1000.4   0  
Apr 15 21:53 WNW 24 16.09 Mostly Clear FEW044 9 -1     51% 6   999 998.8      
Apr 15 20:53 WNW 33 16.09 Cloudy and Windy BKN080 OVC095 9 -1     50% 6   998 997.7 0    
Apr 15 19:53   16.09 Light Rain FEW044 OVC085 11 1     50%     996.3 996.3 0   0
Apr 15 18:53 W 28 16.09 Cloudy OVC085 12 1     48%     994.6 994.5 0    
Apr 15 17:53 W 32 16.09 Light Rain BKN065 OVC080 13 4     55%     992.9 992.9 0    
Apr 15 16:53 W 32 16.09 Mostly Clear and Windy FEW030 15 9     67%     990.9 990.6 0 0  
Apr 15 15:53 W 21 11.27 Light Rain SCT018 BKN032 OVC070 15 11     78%     989.8 989.9 0    
Apr 15 15:43 W 22 12.87 Light Rain SCT018 BKN033 OVC080 15 11     78%     990.2   0    
Apr 15 15:36 W 22 4.02 Light Rain SCT018 BKN029 OVC080 16 12     80%     990.5   0    
Apr 15 14:53 SSW 13 16.09 Cloudy SCT043 SCT050 OVC075 21 12     57%     988.5 988.5      
May 15 06:53 S 9 4.83 Fog/Mist OVC003 15 14     93%     1010.8 1010.9      
May 15 04:53 S 8 14.48 Clear   14 12     89%     1011.2 1011      
May 14 23:53 S 8 16.09 Clear CLR 14 12     87%     1012.5 1012.6      
May 14 13:53 SSW 15 16.09 Partly Cloudy SCT035 21 12     55%     1013.6 1013.5      
May 14 06:19 SSE 8 16.09 Cloudy BKN007 OVC030 11 9     89%     1016.6        
May 13 23:53 SSE 8 16.09 Clear CLR 10 8     89% 9   1018.6 1018.4      
May 13 13:53 NNE 9 16.09 Mostly Cloudy BKN021 BKN026 16 9     67%     1022 1022      
May 13 00:53 NNE 8 9.66 Fog/Mist OVC006 11 9     89%     1019.7 1019.6      
May 12 14:15 N 5 16.09 Cloudy BKN009 OVC013 12 10     89%     1020.7        
May 11 20:53 SSE 5 16.09 Clear CLR 12 0     43%     1018.3 1018.2      
May 11 12:53   16.09 Clear CLR 20 2     30%     1014.6 1014.5      
Jun 12 05:53 Calm 16.09 Clear CLR 21 18     87%     1014.6 1014.5      
Jun 10 22:53 SSW 11 16.09 Clear   23 13     55%   23 1015.6 1015.5      
Jun 10 15:53 S 21 16.09 Clear CLR 28 13     38%   28 1012.9 1012.8      
Jun 08 08:53 Calm 16.09 Clear CLR 19 13     68%     1017.3 1017.2      
Jun 07 22:53 Calm 16.09 Clear CLR 11 10     93%     1016.6 1016.5      
Jun 07 11:53 NE 13 16.09 Cloudy OVC075 18 10     60%     1014.6 1014.5      
Jun 06 13:35 NNE 22 9.66 Light Rain and Fog/Mist SCT009 SCT018 OVC039 9 8     93% 6   1010.2   0    
Jun 06 11:53 NE 18 2.01 Light Rain and Fog/Mist BKN007 OVC014 10 9     93% 8   1010.5 1010.3 0    
Notice The following observation data may not be complete
Jun 06 05:05   2.82 Fog/Mist OVC006          %              
Jun 05 21:53 ENE 15 4.02 Light Rain and Fog/Mist OVC006 12 12     97%     1010.5 1010.3 0    
Jun 05 18:53 ENE 13 2.82 Fog/Mist OVC006 13 12     93%     1010.2 1009.9